sat.trackr.live / text

‹ back to catalog

STARLINK-32318

NORAD 61864 · 2024-202V

PAYLOAD ACTIVE UNKNOWN

§ Identity

Operator
Country
US
Launch date
2024-11-07
Launch site
AFETR
Launch vehicle
Mass (kg)
RCS (m²)

Purposes: comms

External: N2YO · Heavens-Above · Gunter

§ Orbital elements

Epoch: 2026-05-24T19:06:31.975488Z

Period
94.27 min
Inclination
43.0031°
Eccentricity
0.0001736
Mean motion
15.27575799 rev/d
Perigee alt
481.9 km
Apogee alt
484.3 km
Semi-major
6,861.2 km
B*
5.4584e-5
RAAN
168.4824°
Arg perigee
273.5625°
Mean anomaly
86.5028°
Rev number
8,697

§ Raw data

STARLINK-323181 61864U 24202V   26144.79620342  .00001240  00000+0  54584-4 0  99912 61864  43.0031 168.4824 0001736 273.5625  86.5028 15.27575799 86974

JSON: /api/v1/satellites/61864 · /tle

For live sub-satellite position, see the globe view (requires WebGL).

§ Visibility from observer

Set your observer location to see the next 7 days of passes ≥ 10°. The values pass through the URL so the page stays shareable.

No JS? Fill the form by hand. The geolocation button needs JavaScript.